Regional Weather Roundup
Issued by NWS Cleveland, OH

Home | Current Version | Previous Version | Text Only | Print | Product List | Glossary Off
Versions: 1 2 3 4 5 6 7 8 9 10 11 12 13 14 15 16 17 18 19 20 21 22 23 24 25 26 27 28 29 30 31 32 33 34 35 36 37 38 39 40 41 42 43 44 45 46 47 48 49 50

309
ASUS41 KCLE 272110
RWRCLE
OHIO REGIONAL WEATHER ROUNDUP
NATIONAL WEATHER SERVICE CLEVELAND, OH
500 PM EDT FRI MAY 27 2016

NOTE: "FAIR" INDICATES FEW OR NO CLOUDS BELOW 12,000 FEET WITH NO
SIGNIFICANT WEATHER AND/OR OBSTRUCTIONS TO VISIBILITY.

OHZ001>008-015>018-024>027-034-035-043-044-272200-
   NORTHWEST OHIO

CITY           SKY/WX    TMP DP  RH WIND       PRES   REMARKS
DEFIANCE       CLOUDY    86  60  41 S7        29.95F
FINDLAY        PTSUNNY   88  59  37 S14G20    29.96F
TOLEDO EXPRESS MOSUNNY   87  59  38 SW8       29.96F
TOLEDO EXEC    MOSUNNY   87  62  43 S7        29.97F
LIMA           PTSUNNY   88  61  40 SW14      29.97F
$$

OHZ009>014-019>023-028>033-038-089-272200-
   NORTHEAST OHIO

CITY           SKY/WX    TMP DP  RH WIND       PRES   REMARKS
CLE-HOPKINS    PTSUNNY   88  59  37 SW9       30.01F
CLE-LAKEFRONT  MOSUNNY   74  64  71 NE8       29.99F
CUY CO. ARPT   PTSUNNY   84  66  54 N8        30.01F
LORAIN-ELYRIA  MOSUNNY   86  60  41 W8        29.99F
ASHTABULA      MOSUNNY   83  65  54 NW8       30.02F
AKRON-CANTON   CLOUDY    85  62  46 SW12      30.02F
WOOSTER        MOSUNNY   87  61  41 SW12      30.02F
MANSFIELD      MOSUNNY   85  61  44 S12       30.02F
YOUNGSTOWN     CLOUDY    85  61  44 W9        30.02F
$$

OHZ042-051>053-060>062-070>072-077>081-272200-
  SOUTHWEST OHIO

CITY           SKY/WX    TMP DP  RH WIND       PRES   REMARKS
CINC-COVINGTON PTSUNNY   84  63  49 SW7       30.00F
CINC-LUNKEN    CLOUDY    84  67  56 S9        29.99F
HAMILTON       MOSUNNY   87  64  46 VRB7      29.99F
DAYTON         PTSUNNY   85  63  47 S10       29.99F
WRIGHT-PAT AFB PTSUNNY   86  63  46 S10       29.98F
DAYTON GENERAL MOSUNNY   84  63  49 S12       29.99F
WILMINGTON     MOSUNNY   84  64  50 S13       30.00F
$$

OHZ036-037-039>041-045>050-054>059-063>069-073>076-082>088-272200-
  CENTRAL AND SOUTHEAST OHIO

CITY           SKY/WX    TMP DP  RH WIND       PRES   REMARKS
COLUMBUS       PTSUNNY   86  61  42 S9        29.99F
OSU AIRPORT    NOT AVBL
BOLTON FIELD   MOSUNNY   88  64  45 SW12      30.00F
RICKENBACK AFB MOSUNNY   87  63  44 SW8       29.99S
NEWARK         MOSUNNY   89  62  40 S8        30.00F
MARION         MOSUNNY   85  62  46 S7        29.99F
LANCASTER      PTSUNNY   86  65  49 SE7       30.01F
ZANESVILLE     SUNNY     88  63  43 SW7       30.02F
NEW PHILLY     SUNNY     88  61  40 VRB7      30.02F
$$




USA.gov is the U.S. government's official web portal to all federal, state and local government web resources and services.